Погода в Пересна

Россия / Смоленская область     54°31′12″N   32°24′38″E
В апреле 2022 года жителям России запретили посещать сайт meteo.paraplan.net по решению Генеральной прокуратуры. Аудитория сайта уменьшилась в 10 раз. Владельцы сайта не видят смысла в поддержке погодного сервера в таких условиях. Сайт будет закрыт в октябре.
темп.,
°C
ветер,
м/с
пор.,
м/с
влажн.,
%
обл.,
%
осадки,
мм/ч
давл.,
гПа
погр.,
м
4 октября, вт
вт400:00+3ю71297100 2.2 994660
03:00+3ю71297100 3.8 996567
06:00+3ю71097100 1.3 998648
09:00+3ююз61097100 4.0 1000570
12:00+3ю61097100 1.8 1002602
15:00+4ююз5997100 3.4 1004704
18:00+5ююз5998100 1.1 1005454
21:00+6зюз4897100 2.3 1007467
5 октября, ср
ср500:00+6зюз4996100 1.2 1008583
03:00+6зсз599199 1.6 1010741
06:00+5зсз5109099 0.4 1012776
09:00+5зсз4894100 1.1 1014895
12:00+7зсз6991100 0.5 1016924
15:00+8зсз5983100 0.6 1017790
18:00+8з4890100 0.1 1018399
21:00+8зюз3796100 0.5 1018267
6 октября, чт
чт600:00+8юз4997100 0.3 1018305
03:00+9зюз3898100 0.3 1018240
06:00+7зюз379792 0.0 1018146
09:00+9юз3796100 0.0 1019208
12:00+14зюз577823 0.0 1018574
15:00+15зюз68691 0.0 1017811
18:00+12юз410845 0.0 1017258
21:00+11юз51491100 0.0 1018348
7 октября, пт
пт700:00+11з6149054 0.0 1019537
03:00+10зсз614915 0.0 1021536
06:00+8з5129532 0.0 1023425
09:00+9зсз61081100 0.0 1024782
12:00+11зсз61074100 0.0 1025894
15:00+12зсз5874100 0.0 10251088
18:00+11зсз37772 0.0 1025276
21:00+8зюз34890 0.0 102652
8 октября, сб
сб800:00+7юз34925 0.0 102662
03:00+7юз35945 0.0 102678
06:00+6ююз37955 0.0 1025118
09:00+8ююз49886 0.0 1025254
12:00+12ююз586924 0.0 1023622
15:00+14ююз5964100 0.0 1020869
18:00+10ю5117876 0.0 1019308
21:00+10ююз51480100 0.0 1018400